Weather Roundup
Issued by NWS

Home | Current Version | Previous Version | Graphics & Text | Print | Product List | Glossary Off
Versions: 1 2 3 4 5 6 7 8 9 10 11 12 13 14 15 16 17 18 19 20 21 22 23 24 25 26 27 28 29 30 31 32 33 34 35 36 37 38 39 40 41 42 43 44 45 46 47 48 49 50

000
NZUS93 KARX 030459
HRRWXR

CURRENT HOURLY OBSERVATIONS ACROSS
MUCH OF THE UPPER MISSISSIPPI VALLEY
NATIONAL WEATHER SERVICE LA CROSSE WI
1200 AM CDT SUN MAY 03 2015


...SOUTHEAST MINNESOTA...


CITY           SKY/WX    TMP DP  RH WIND       PRES   REMARKS
ROCHESTER      CLEAR     59  49  69 S13       29.87R
ROCHESTER/MAYO FAIR      62  50  65 S9        29.86R
WINONA         CLEAR     64  50  59 SW7       29.86R
AUSTIN         CLEAR     57  50  77 S7        29.85F
ALBERT LEA     CLEAR     61  50  67 S10G17    29.83F
DODGE CENTER   CLEAR     61  50  67 S12       29.84F
PRESTON        CLEAR     58  49  73 S13       29.87F
OWATONNA       CLEAR     61  50  67 S13       29.83S
FARIBAULT      CLEAR     63  52  67 S8        29.82S
$$

...ELSEWHERE IN MINNESOTA...


CITY           SKY/WX    TMP DP  RH WIND       PRES   REMARKS
MINNEAPOLIS    PTCLDY    68  52  56 S12G22    29.78R
INTNL FALLS    CLOUDY    65  35  33 S3        29.62S
DULUTH         CLOUDY    54  43  66 SE8       29.72F
RED WING       CLEAR     66  48  52 SW8       29.81R
REDWOOD FALLS  CLEAR     64  52  64 S17       29.71F
MANKATO        CLEAR     63  46  55 S14G21    29.79F
WORTHINGTON    CLEAR     61  50  67 S17       29.76F
FAIRMONT       CLEAR     59  46  63 S17       29.79F
$$

...SOUTHWEST WISCONSIN...


CITY           SKY/WX    TMP DP  RH WIND       PRES   REMARKS
LA CROSSE      CLEAR     65  51  60 S10       29.86S
PRAIRIE DU CHI CLEAR     63  49  59 S5        29.91R
BOSCOBEL       PTCLDY    60  48  64 S5        29.91S
LONE ROCK      NOT AVBL
PLATTEVILLE    CLEAR     56  49  78 S10       29.94S
FORT MC COY    CLEAR     60  47  62 S7        29.89S
VIROQUA        FAIR      59  48  67 S8        29.90S
WIS DELLS      NOT AVBL
$$

...ELSEWHERE IN WISCONSIN...


CITY           SKY/WX    TMP DP  RH WIND       PRES   REMARKS
MILWAUKEE      PTCLDY    61  39  44 SW7       29.94S
MADISON        MOCLDY    63  45  51 SW5       29.92S
GREEN BAY      CLEAR     59  45  59 S6        29.89R
EAU CLAIRE     NOT AVBL
BLACK RVR FLS  FAIR      64  47  54 S3        29.86S
MEDFORD        CLEAR     63  48  58 S10       29.86R
WAUSAU         CLEAR     64  45  49 SW10      29.85S
WIS RAPIDS     CLEAR     62  46  55 SW6       29.89S
MARSHFIELD     PTCLDY    62  48  60 S8        29.87S
RICE LAKE      PTCLDY    65  47  50 S9        29.81R
$$

...NORTHEAST IOWA...


CITY           SKY/WX    TMP DP  RH WIND       PRES   REMARKS
DECORAH        PTCLDY    59  52  77 S9G15     29.89S
MASON CITY     CLEAR     56  50  80 S9        29.86F
CHARLES CITY   CLEAR     59  52  77 S12       29.88F
OELWEIN        MOCLDY    59  52  77 S10       29.91F
$$

...ELSEWHERE IN IOWA...


CITY           SKY/WX    TMP DP  RH WIND       PRES   REMARKS
DES MOINES     PTCLDY    58  51  78 S9        29.86F
IOWA CITY      PTCLDY    59  52  77 E7        29.93F
FORT DODGE     MOCLDY    61  52  72 S9        29.84S
$$

...NORTHERN ILLINOIS...


CITY           SKY/WX    TMP DP  RH WIND       PRES   REMARKS
CHICAGO-OHARE  MOCLDY    58  40  51 S7        29.96S
CHICAGO-MIDWAY MOCLDY    65  39  38 S6        29.97S
MOLINE         CLOUDY    62  48  60 S3        29.95S
ROCKFORD       CLOUDY    60  43  53 S3        29.98R
PEORIA         MOCLDY    62  46  55 S5        29.98F
$$

NOTE: "FAIR" INDICATES FEW OR NO CLOUDS BELOW 12,000 FEET WITH NO
SIGNIFICANT WEATHER AND/OR OBSTRUCTIONS TO VISIBILITY. WIND
SPEEDS ARE IN MILES-PER-HOUR.



USA.gov is the U.S. government's official web portal to all federal, state and local government web resources and services.